Location: LewisvilleTX
(33.0462°N, 96.9942°W)
Time: 06:20:23
(UTC+00:00)

X-37B - Visible Passes

Search period start: 28 November 2021 00:00
Search period end: 08 December 2021 00:00
Orbit: 330 x 341 km, 45.0° (Epoch: 20 November)

Date Brightness Start Highest point End Pass type
(mag) Time Alt. Az. Time Alt. Az. Time Alt. Az.
03 Dec 2.5 00:45:17 10° S 00:46:39 17° SSE 00:46:39 17° SSE visible
04 Dec 2.0 01:04:51 10° SW 01:06:34 32° SW 01:06:34 32° SW visible
04 Dec 2.2 23:50:44 10° S 23:52:49 19° SE 23:54:55 10° E visible
05 Dec 3.3 01:25:31 10° W 01:26:24 17° W 01:26:24 17° W visible
06 Dec 0.3 00:10:17 10° SW 00:13:07 68° SE 00:14:56 20° ENE visible
07 Dec 1.5 00:30:55 10° W 00:33:35 35° NNW 00:34:38 25° NNE visible
